Liberia, Costa Rica

3:30 AM CST on December 18, 2017 (GMT -0600)
Daniel Oduber Quiros International

Weather History for MRLB - January, 2014

Change the Weather History Date:

Sunday, January 12, 2014

  Actual Average Record
Temperature  
Mean Temperature 79 °F -  
Max Temperature 92 °F 89 °F 93 °F (1998)
Min Temperature 66 °F 73 °F 62 °F (2016)
Cooling Degree Days 14    
Growing Degree Days 29 (Base 50)    
Moisture  
Dew Point 64 °F    
Average Humidity 51    
Maximum Humidity 94    
Minimum Humidity 30    
Precipitation  
Precipitation 0.00 in - - ()
Sea Level Pressure  
Sea Level Pressure 29.86 in    
Wind  
Wind Speed 13 mph ()    
Max Wind Speed 22 mph    
Max Gust Speed 32 mph    
Visibility 8.8 miles    
Events      
Averages and records for this station are not official NWS values.
T = Trace of Precipitation, MM = Missing Value Source: Averaged Metar Reports

Daily Weather History Graph

Daily Weather History Graph

Search for Another Location

Airport or City:

Trip Planner

Search our weather history database for the weather conditions in past years. The results will help you decide how hot, cold, wet, or windy it might be!

Date:

Astronomy

Jan. 12, 2014 Rise Set
Actual Time 6:03 AM CST 5:37 PM CST
Civil Twilight 5:41 AM CST 5:59 PM CST
Nautical Twilight 5:15 AM CST 6:26 PM CST
Astronomical Twilight 4:49 AM CST 6:51 PM CST
Moon 3:00 PM CST (1/12) 3:06 AM CST (1/12)
Length of Visible Light 12h 18m
Length of Day
11h 33m
Waxing Gibbous, 90% of the Moon is Illuminated
Jan 12
Waxing Gibbous
Jan 15
Full
Jan 23
Last Quarter
Jan 30
New
Feb 6
First Quarter

Hourly Weather History & Observations

Time (CST) Temp. Heat Index Dew Point Humidity Pressure Visibility Wind Dir Wind Speed Gust Speed Precip Events Conditions
6:00 AM 66 °F - 65 °F 94% 29.87 in 12 mi NNE 5.8 mph - -  
6:00 AM 66.2 °F - 64.4 °F 94% 29.86 in - NNE 5.8 mph - N/A   Clear
7:00 AM 71.6 °F - 66.2 °F 83% 29.88 in - SE 8.1 mph - N/A   Clear
8:00 AM 82.4 °F 83.9 °F 64.4 °F 54% 29.89 in - East 17.3 mph - N/A   Clear
9:00 AM 85 °F - 65 °F 42% 29.93 in 12 mi East 20.7 mph - -  
9:00 AM 86.0 °F 87.3 °F 64.4 °F 48% 29.91 in - East 20.7 mph 32.2 mph N/A   Clear
10:00 AM 87.8 °F 89.4 °F 64.4 °F 46% 29.91 in 6.2 mi ENE 21.9 mph - N/A   Partly Cloudy
11:00 AM 89.6 °F 90.1 °F 62.6 °F 40% 29.89 in 6.2 mi ENE 21.9 mph - N/A   Partly Cloudy
12:00 PM 90 °F - 65 °F 34% 29.89 in 12 mi East 18.4 mph - -   Scattered Clouds
12:00 PM 89.6 °F 91.1 °F 64.4 °F 43% 29.87 in 6.2 mi East 18.4 mph - N/A   Partly Cloudy
1:00 PM 91.4 °F 92.1 °F 62.6 °F 38% 29.85 in 6.2 mi ENE 17.3 mph - N/A   Partly Cloudy
2:00 PM 91.4 °F 92.1 °F 62.6 °F 38% 29.81 in 6.2 mi East 16.1 mph - N/A   Partly Cloudy
3:00 PM 90 °F - 63 °F 30% 29.81 in 12 mi ENE 20.7 mph - -   Scattered Clouds
3:00 PM 89.6 °F 90.1 °F 62.6 °F 40% 29.80 in 6.2 mi ENE 20.7 mph - N/A   Partly Cloudy
4:00 PM 87.8 °F 88.5 °F 62.6 °F 43% 29.80 in - ENE 20.7 mph - N/A   Clear
5:00 PM 86.0 °F 87.3 °F 64.4 °F 48% 29.81 in - East 16.1 mph - N/A   Clear
6:00 PM 82 °F - 63 °F 43% 29.84 in 12 mi ENE 16.1 mph - -  
6:00 PM 82.4 °F 83.4 °F 62.6 °F 51% 29.83 in - ENE 16.1 mph 27.6 mph N/A   Clear
7:00 PM 80.6 °F 82.3 °F 64.4 °F 58% 29.85 in - East 19.6 mph - N/A   Clear
8:00 PM 78.8 °F - 64.4 °F 61% 29.88 in - East 18.4 mph 29.9 mph N/A   Clear